Date,TemperatureHighF,TemperatureAvgF,TemperatureLowF,DewpointHighF,DewpointAvgF,DewpointLowF,HumidityHigh,HumidityAvg,HumidityLow,PressureMaxIn,PressureMinIn,WindSpeedMaxMPH,WindSpeedAvgMPH,GustSpeedMaxMPH,PrecipitationSumIn
2013-1-1,20.4,9.3,-0.6,13.1,5.1,-3.9,89,83,72,30.74,30.59,10,1,10,0.00
2013-1-2,19.4,4.4,-5.4,11.5,0.2,-9.0,90,83,70,30.87,30.71,4,0,4,0.00
2013-1-3,22.8,4.0,-8.6,9.3,-1.7,-12.6,89,78,47,30.90,30.80,4,0,4,0.00
2013-1-4,27.3,6.9,-5.8,10.9,0.3,-9.4,91,75,44,30.83,30.67,8,1,8,0.00
2013-1-5,29.6,11.1,-2.1,15.4,4.6,-5.7,91,76,49,30.83,30.62,4,0,4,0.00
2013-1-6,36.2,18.7,6.5,17.5,10.5,3.3,91,73,39,30.62,30.29,5,0,5,0.00
2013-1-7,33.7,18.3,2.5,22.2,9.1,-0.9,90,70,40,30.44,30.33,6,1,6,0.00
2013-1-8,36.1,30.7,26.0,28.5,25.5,21.7,87,81,69,30.46,30.31,12,2,12,0.00
2013-1-9,45.2,27.8,11.2,24.2,18.8,8.7,96,72,39,30.49,29.93,21,3,21,0.01
2013-1-10,40.8,31.3,17.5,28.1,20.3,12.4,93,67,43,29.94,29.44,28,9,28,0.01
2013-1-11,17.5,14.1,10.8,12.6,8.8,6.5,87,79,69,30.17,29.54,13,2,13,0.00
2013-1-12,12.6,5.9,-1.8,7.7,1.1,-6.5,88,80,66,30.41,30.16,14,2,14,0.00
2013-1-13,7.7,-1.9,-12.6,0.5,-6.6,-16.9,85,80,70,30.67,30.41,8,1,8,0.00
2013-1-14,6.8,-4.9,-17.1,-1.9,-10.1,-21.6,85,78,62,30.91,30.67,12,1,12,0.00
2013-1-15,16.7,9.5,2.4,10.9,4.4,-2.5,90,79,71,30.93,30.85,11,2,12,0.00
2013-1-16,23.8,12.7,5.1,17.0,8.8,1.7,89,84,74,30.97,30.86,4,1,4,0.00
2013-1-17,28.5,10.5,-3.4,19.0,6.0,-6.6,92,82,65,31.00,30.84,5,0,5,0.00
2013-1-18,33.4,14.1,-0.6,19.1,8.1,-3.9,93,78,49,30.86,30.69,5,1,5,0.00
2013-1-19,35.0,17.0,2.5,19.1,10.1,-0.6,92,76,48,30.83,30.69,4,1,4,0.00
2013-1-20,35.4,15.6,0.4,16.3,8.0,-3.2,93,74,40,30.75,30.64,7,1,7,0.00
2013-1-21,37.4,17.6,3.3,19.5,9.7,0.1,91,73,42,30.76,30.61,4,1,4,0.00
2013-1-22,39.3,18.8,4.9,18.9,10.0,1.3,92,71,37,30.68,30.55,4,0,4,0.00
2013-1-23,44.6,24.8,11.0,25.5,15.4,7.4,87,70,35,30.60,30.42,4,1,4,0.09
2013-1-24,38.4,33.1,25.6,35.6,30.0,19.7,96,88,76,30.43,30.26,4,0,4,0.29
2013-1-25,39.8,34.3,29.2,35.3,32.4,27.5,98,93,80,30.35,30.17,6,0,6,0.25
2013-1-26,31.6,30.3,28.7,30.5,29.0,27.2,96,95,94,30.18,30.15,1,0,3,0.00
2013-1-27,38.7,30.2,23.7,33.9,27.0,17.8,97,88,71,29.87,29.66,18,3,18,0.09
2013-1-28,24.0,19.0,14.5,18.6,13.2,8.8,87,78,57,30.13,29.86,12,4,12,0.00
2013-1-29,26.0,17.7,10.0,18.1,12.6,7.2,90,80,65,30.39,30.07,14,2,14,0.00
2013-1-30,34.9,27.4,19.7,27.8,22.5,15.8,92,82,74,30.40,30.28,26,6,26,0.01
2013-1-31,35.9,32.6,30.6,26.4,25.1,23.7,84,74,64,30.41,30.32,15,5,17,0.08
2013-2-1,39.4,29.3,19.5,27.5,22.7,14.7,92,77,58,30.55,30.31,12,2,12,0.05
2013-2-2,38.4,22.7,10.0,22.6,15.9,7.3,93,77,42,30.70,30.55,6,1,6,0.00
2013-2-3,40.3,25.7,17.0,18.4,15.9,11.6,92,69,35,30.56,30.28,10,1,10,0.00
2013-2-4,40.0,23.4,9.8,21.2,14.3,7.2,92,70,41,30.42,30.32,12,1,12,0.03
2013-2-5,44.2,29.2,17.0,25.8,18.7,12.9,85,67,37,30.38,30.01,5,1,5,0.11
2013-2-6,38.7,30.1,15.8,22.5,18.6,11.8,84,64,38,30.27,29.99,15,2,15,0.01
2013-2-7,40.5,23.8,7.2,17.1,11.1,4.3,89,63,25,30.35,30.08,18,5,18,0.00
2013-2-8,38.2,29.5,24.1,28.4,21.7,16.2,91,73,53,30.09,29.66,25,5,25,0.01
2013-2-9,28.8,23.5,18.9,23.6,19.4,14.8,92,84,73,29.95,29.71,12,2,12,0.03
2013-2-10,26.9,19.6,13.1,18.5,14.5,10.0,90,81,63,30.19,29.95,10,2,10,0.01
2013-2-11,25.4,13.6,4.7,14.7,7.6,1.4,90,77,52,30.51,30.19,12,1,12,0.00
2013-2-12,27.6,16.7,2.0,19.8,11.0,-1.3,90,79,65,30.65,30.51,12,2,12,0.00
2013-2-13,37.7,26.8,15.7,25.7,20.8,12.7,91,78,60,30.60,30.35,15,2,15,0.01
2013-2-14,35.9,28.9,17.6,25.0,20.2,13.6,86,71,46,30.53,30.31,14,5,14,0.01
2013-2-15,36.7,26.0,17.6,23.7,18.7,13.6,87,75,56,30.66,30.52,13,2,13,0.00
2013-2-16,42.8,24.8,10.4,22.9,15.7,7.9,94,71,35,30.64,30.21,4,1,4,0.01
2013-2-17,38.5,25.9,15.6,23.2,15.8,9.7,81,66,43,30.21,29.92,20,4,20,0.00
2013-2-18,32.4,19.4,4.7,15.9,10.4,1.7,92,70,47,30.36,30.18,5,1,5,0.00
2013-2-19,41.3,30.1,17.9,15.7,11.4,7.0,67,46,32,30.18,29.68,27,7,27,0.00
2013-2-20,38.0,29.7,24.2,24.2,19.4,12.9,77,66,51,29.78,29.61,12,3,12,0.00
2013-2-21,29.1,23.4,15.0,20.5,14.9,8.7,85,70,58,30.16,29.78,15,5,15,0.00
2013-2-22,28.8,19.4,12.3,17.9,11.8,7.4,89,73,48,30.30,30.16,14,2,14,0.00
2013-2-23,27.1,20.5,15.6,22.7,15.4,11.6,90,80,70,30.25,29.88,20,4,20,0.00
2013-2-24,27.0,19.1,8.1,16.2,11.8,4.4,85,73,58,30.47,30.11,15,5,16,0.06
2013-2-25,31.4,16.5,0.4,17.4,8.2,-3.0,91,71,46,30.53,30.26,12,2,12,0.03
2013-2-26,28.1,21.0,9.0,18.6,12.8,4.3,86,71,54,30.49,30.21,17,5,17,0.00
2013-2-27,29.9,14.2,-0.9,14.4,5.7,-4.4,91,71,36,30.74,30.50,12,2,12,0.01
2013-2-28,38.0,22.4,4.9,21.8,12.3,1.5,89,67,44,30.75,30.67,13,1,13,0.03
2013-3-1,44.3,35.3,25.5,30.6,26.6,20.2,89,71,56,30.68,30.49,12,4,12,0.00
2013-3-2,48.0,32.5,18.6,29.2,24.1,16.4,95,74,43,30.58,30.21,9,1,9,0.00
2013-3-3,38.4,33.3,27.6,35.8,30.5,24.1,96,89,80,30.21,29.92,12,1,12,0.23
2013-3-4,34.9,26.7,12.8,31.6,15.3,5.4,92,64,36,30.40,29.93,21,5,21,0.04
2013-3-5,47.7,26.8,7.5,17.1,10.3,3.4,86,55,19,30.51,30.14,18,2,18,0.01
2013-3-6,51.9,40.2,28.0,32.2,21.7,15.4,90,50,30,30.14,29.75,26,7,26,0.01
2013-3-7,45.4,35.9,30.6,30.9,29.0,26.3,91,77,49,29.94,29.83,10,2,10,0.00
2013-3-8,43.3,35.1,30.6,33.1,30.4,26.9,95,84,53,29.92,29.70,14,2,14,0.04
2013-3-9,39.3,32.3,24.3,31.1,25.5,14.9,95,77,52,30.30,29.72,20,4,20,0.29
2013-3-10,43.2,29.8,15.0,23.5,17.4,12.3,90,63,34,30.48,30.30,16,2,16,0.05
2013-3-11,43.8,35.1,22.8,29.2,23.1,17.3,80,62,45,30.42,30.21,20,5,20,0.00
2013-3-12,48.6,40.1,31.3,33.2,30.0,26.6,89,69,47,30.30,30.21,14,4,14,0.01
2013-3-13,57.6,39.7,25.3,33.2,27.5,23.0,94,66,33,30.44,30.29,9,1,9,0.00
2013-3-14,65.0,43.8,26.7,30.2,26.3,22.9,86,57,21,30.35,30.15,10,1,10,0.00
2013-3-15,59.9,44.8,30.4,33.2,25.7,19.8,85,53,22,30.15,29.95,15,2,15,0.00
2013-3-16,49.5,38.5,28.4,30.3,23.0,13.7,85,58,26,29.96,29.82,15,3,15,0.00
2013-3-17,40.8,34.1,27.4,31.5,23.3,12.9,89,65,49,30.02,29.76,23,7,23,0.09
2013-3-18,40.9,32.5,25.2,22.5,17.9,14.9,83,57,36,30.17,30.02,25,5,25,0.00
2013-3-19,47.1,34.4,21.1,18.0,8.9,-7.2,73,40,11,30.30,30.16,12,2,12,0.00
2013-3-20,42.2,35.0,27.0,38.5,27.1,11.6,94,74,49,30.23,29.82,9,1,9,0.14
2013-3-21,41.9,30.2,18.9,34.2,22.2,10.9,95,73,44,30.05,29.69,24,7,24,0.30
2013-3-22,26.9,21.4,17.3,20.0,14.6,7.8,90,75,47,30.16,30.00,20,3,20,0.01
2013-3-23,28.7,19.5,10.4,18.2,12.4,7.0,89,74,48,30.41,30.16,18,4,18,0.01
2013-3-24,30.9,17.2,4.6,18.7,9.9,1.3,91,74,45,30.46,30.39,14,2,14,0.01
2013-3-25,42.9,25.6,6.5,24.4,14.7,3.7,91,66,41,30.46,30.22,10,2,10,0.01
2013-3-26,53.5,37.0,26.5,31.3,23.5,19.5,90,62,27,30.22,29.92,15,3,15,0.00
2013-3-27,57.2,39.2,23.4,31.6,24.8,21.2,94,62,27,30.08,29.99,9,2,9,0.00
2013-3-28,62.3,43.9,28.3,31.3,26.3,22.6,85,54,25,30.05,29.94,12,3,12,0.00
2013-3-29,57.4,44.8,32.4,34.5,30.3,26.8,89,60,32,30.15,30.04,18,3,18,0.00
2013-3-30,57.9,42.2,27.2,34.2,27.4,23.4,90,60,28,30.19,30.12,16,3,16,0.00
2013-3-31,63.7,43.2,24.0,30.0,23.3,9.7,91,54,14,30.15,29.92,14,2,14,0.00
2013-4-1,49.5,40.7,32.8,38.6,34.8,26.5,94,80,55,29.96,29.79,18,2,18,0.32
2013-4-2,49.0,38.9,32.5,38.6,33.4,30.9,97,82,52,30.10,29.92,10,1,10,0.89
2013-4-3,57.7,42.8,27.8,39.8,30.2,26.3,97,66,31,30.20,30.10,13,2,13,0.00
2013-4-4,64.9,46.8,29.0,34.9,28.6,24.4,90,55,25,30.14,29.85,16,2,16,0.00
2013-4-5,52.9,44.3,31.4,40.4,33.1,26.6,94,67,37,29.96,29.75,18,4,18,0.22
2013-4-6,52.7,39.2,29.0,38.0,30.1,25.9,91,72,37,30.04,29.95,10,2,10,0.03
2013-4-7,55.7,42.4,29.2,34.8,29.7,24.6,93,64,36,29.98,29.56,21,3,21,0.00
2013-4-8,47.7,35.8,23.4,33.7,29.8,20.4,96,82,35,29.57,29.31,15,4,15,0.31
2013-4-9,27.4,21.5,16.0,21.1,15.3,12.9,92,78,55,30.34,29.57,17,6,17,0.04
2013-4-10,43.0,29.5,11.7,28.7,19.4,8.6,89,67,46,30.40,30.08,13,3,13,0.61
2013-4-11,48.0,38.3,32.6,35.8,31.4,27.6,96,78,47,30.09,29.91,14,3,14,0.14
2013-4-12,53.2,39.8,26.7,31.5,26.5,21.8,93,63,31,30.02,29.86,17,3,17,0.00
2013-4-13,48.7,37.9,30.7,37.4,29.2,20.9,93,72,37,29.87,29.51,16,4,16,0.29
2013-4-14,42.6,31.7,23.9,23.8,12.2,4.8,87,46,25,29.89,29.71,20,6,20,0.03
2013-4-15,37.8,31.7,25.9,31.7,26.2,22.0,94,81,61,29.76,29.66,10,2,10,0.17
2013-4-16,32.4,28.9,24.8,26.0,21.9,15.9,91,75,59,30.02,29.67,13,4,13,0.07
2013-4-17,35.6,26.4,19.7,23.1,14.6,10.8,75,61,40,30.31,30.02,20,6,20,0.00
2013-4-18,40.6,31.2,19.7,15.5,9.0,1.2,58,40,27,30.39,30.30,18,6,18,0.00
2013-4-19,48.7,34.5,20.9,34.1,23.8,13.9,90,66,46,30.38,30.06,15,2,15,0.04
2013-4-20,45.6,38.1,31.5,37.3,32.2,28.0,96,80,56,30.15,29.99,17,4,17,0.17
2013-4-21,55.4,41.1,24.4,32.6,27.0,22.4,95,62,34,30.21,29.97,13,3,13,0.01
2013-4-22,43.5,38.8,30.1,33.1,25.6,14.6,83,60,34,30.10,29.91,14,6,14,0.01
2013-4-23,43.7,33.3,20.8,23.6,15.3,2.8,84,52,20,30.27,30.10,14,4,14,0.00
2013-4-24,53.9,38.8,23.6,21.3,14.9,4.0,74,42,15,30.28,30.12,12,2,12,0.00
2013-4-25,56.3,40.3,21.9,24.5,16.6,-4.3,83,45,12,30.14,29.98,18,4,18,0.00
2013-4-26,61.4,43.7,24.2,24.6,18.2,11.4,75,40,18,30.26,30.12,15,3,15,0.00
2013-4-27,65.1,47.3,27.9,27.4,23.2,17.4,81,44,17,30.28,30.08,14,3,14,0.00
2013-4-28,69.3,51.1,32.1,32.8,28.7,25.8,79,47,22,30.08,29.83,18,3,18,0.00
2013-4-29,66.4,51.6,31.6,33.7,29.1,24.8,84,47,26,29.88,29.61,16,4,16,0.00
2013-4-30,53.0,46.1,33.1,31.6,18.6,3.8,64,35,20,29.97,29.59,21,7,21,0.00
2013-5-1,42.8,34.4,28.2,26.2,14.1,4.0,64,44,30,30.63,29.97,18,6,18,0.00
2013-5-2,58.2,39.0,18.9,22.6,15.6,4.9,81,44,13,30.75,30.42,14,2,14,0.00
2013-5-3,63.0,45.6,25.2,24.4,19.0,8.6,80,41,12,30.42,29.93,16,3,16,0.00
2013-5-4,62.9,46.5,27.5,33.4,23.2,17.7,71,43,18,29.94,29.76,12,2,12,0.00
2013-5-5,66.1,51.1,36.4,37.4,30.9,26.1,74,49,23,29.88,29.72,16,3,16,0.00
2013-5-6,63.4,49.7,40.6,39.0,34.1,28.1,81,57,29,29.83,29.73,16,3,16,0.00
2013-5-7,58.9,47.8,37.0,41.6,36.1,28.5,94,67,33,29.89,29.77,20,3,20,0.01
2013-5-8,58.1,43.8,32.1,44.9,37.5,29.6,93,80,49,30.06,29.89,16,2,16,0.11
2013-5-9,67.8,49.9,31.2,44.4,33.9,23.9,98,62,22,30.12,29.97,21,3,21,0.00
2013-5-10,69.2,53.0,34.7,41.2,34.3,26.9,90,53,21,30.15,30.01,14,2,14,0.00
2013-5-11,71.1,53.7,34.1,39.4,31.8,25.9,89,50,21,30.23,30.11,12,2,12,0.00
2013-5-12,75.8,57.1,35.7,38.1,32.5,28.6,81,45,20,30.20,30.01,14,2,14,0.00
2013-5-13,83.2,62.0,40.4,42.5,34.8,28.8,79,42,15,30.05,29.80,12,2,12,0.00
2013-5-14,81.2,62.5,44.1,43.4,35.7,24.7,69,41,15,29.82,29.65,16,2,16,0.00
2013-5-15,79.2,62.6,46.3,43.6,37.0,29.8,73,42,17,29.73,29.57,16,4,16,0.00
2013-5-16,75.7,61.0,45.2,43.8,38.6,30.3,80,47,20,29.65,29.50,22,4,22,0.00
2013-5-17,62.8,51.3,43.1,45.0,39.7,33.0,88,66,34,29.79,29.58,22,3,22,0.02
2013-5-18,54.4,45.6,38.0,43.6,39.1,32.4,96,80,47,29.95,29.78,20,3,20,0.28
2013-5-19,55.6,44.5,35.5,43.2,36.7,32.7,96,76,44,30.04,29.93,20,4,20,0.39
2013-5-20,57.0,47.6,41.3,46.2,39.8,35.7,90,75,55,30.05,29.98,12,4,12,0.04
2013-5-21,66.0,51.3,33.4,44.2,34.4,24.1,97,60,21,30.04,29.68,10,2,10,0.00
2013-5-22,76.5,58.4,41.8,38.0,31.6,23.1,68,41,16,29.68,29.36,27,7,27,0.00
2013-5-23,71.8,51.2,32.3,38.0,30.3,23.9,83,51,18,29.84,29.52,23,5,23,0.00
2013-5-24,70.0,51.7,30.6,33.3,25.4,12.7,83,42,11,29.95,29.81,12,2,12,0.00
2013-5-25,73.7,57.0,39.1,35.2,27.1,17.4,72,38,14,29.82,29.68,17,4,17,0.00
2013-5-26,74.8,59.5,41.4,30.7,24.9,16.0,60,30,11,29.74,29.62,17,4,17,0.00
2013-5-27,67.7,55.9,42.2,39.4,33.2,26.2,73,44,23,29.73,29.62,10,1,10,0.00
2013-5-28,55.9,47.0,40.6,42.1,37.7,26.9,92,72,37,29.76,29.51,0,0,0,0.24
2013-5-29,56.1,45.6,37.2,40.2,36.2,30.6,95,73,40,29.82,29.73,0,0,0,0.11
2013-5-30,56.9,45.1,32.8,41.8,34.0,29.0,97,69,39,29.94,29.81,0,0,0,0.03
2013-5-31,59.5,47.8,32.3,32.5,26.4,15.7,92,48,24,30.17,29.94,0,0,0,0.00
2013-6-1,60.8,36.5,29.0,39.3,26.8,23.9,86,70,33,30.21,30.15,0,0,0,0.00
2013-10-18,69.0,59.2,42.9,39.4,29.7,12.7,45,34,18,29.89,29.86,0,0,0,0.00